Location: Gebenbach
(49.5378°N, 11.8735°E)
Time: 03:37:40
(UTC+00:00)

Aureole 3 Rocket - Pass Details

Date: 29 October 2020
Orbit: 399 x 1739 km, 82.5° (Epoch: 24 November)

Event Time Altitude Azimuth Distance (km) Brightness Sun altitude
Rises 16:19:27 0° 155° (SSE) 2,724 6.3 -4.6°
Reaches altitude 10° 16:21:32 10° 144° (SE) 1,974 5.4 -4.9°
Maximum altitude 16:25:20 30° 83° (E) 1,321 4.2 -5.5°
Drops below altitude 10° 16:30:20 10° 24° (NNE) 2,655 5.9 -6.3°
Sets 16:33:34 0° 16° (NNE) 3,856 6.8 -6.8°
